Milwaukee Timmerman, WI

2:24 AM CDT on October 20, 2017 (GMT -0500)
Timmerman

Weather History for KMWC - February, 2014

Change the Weather History Date:

Thursday, February 27, 2014

  Actual Average Record
Temperature  
Mean Temperature 7 °F -  
Max Temperature 14 °F 37 °F 63 °F (1976)
Min Temperature 0 °F 22 °F -2 °F (2015)
Degree Days  
Heating Degree Days 58    
Moisture  
Dew Point -10 °F    
Average Humidity 52    
Maximum Humidity 73    
Minimum Humidity 34    
Precipitation  
Precipitation 0.00 in - - ()
Sea Level Pressure  
Sea Level Pressure 29.97 in    
Wind  
Wind Speed 15 mph (NW)    
Max Wind Speed 23 mph    
Max Gust Speed 33 mph    
Visibility 10 miles    
Events Snow    
Averages and records for this station are not official NWS values.
T = Trace of Precipitation, MM = Missing Value Source: NWS Daily Summary

Daily Weather History Graph

Daily Weather History Graph

Search for Another Location

Airport or City:

Trip Planner

Search our weather history database for the weather conditions in past years. The results will help you decide how hot, cold, wet, or windy it might be!

Date:

Astronomy

Feb. 27, 2014 Rise Set
Actual Time 6:31 AM CST 5:38 PM CST
Civil Twilight 6:02 AM CST 6:07 PM CST
Nautical Twilight 5:29 AM CST 6:40 PM CST
Astronomical Twilight 4:57 AM CST 7:13 PM CST
Moon 5:05 AM CST (2/27) 4:02 PM CST (2/27)
Length of Visible Light 12h 04m
Length of Day
11h 07m
Waning Crescent, 4% of the Moon is Illuminated
Feb 27
Waning Crescent
Mar 1
New
Mar 8
First Quarter
Mar 16
Full
Mar 23
Last Quarter

Hourly Weather History & Observations

Time (CST) Temp. Windchill Dew Point Humidity Pressure Visibility Wind Dir Wind Speed Gust Speed Precip Events Conditions
12:15 AM 14.0 °F -4.7 °F 5.0 °F 67% 29.59 in 10.0 mi WNW 23.0 mph 32.2 mph N/A   Scattered Clouds
12:35 AM 12.2 °F -4.8 °F 3.2 °F 67% 29.61 in 7.0 mi NW 17.3 mph 31.1 mph N/A   Scattered Clouds
12:55 AM 10.4 °F -8.6 °F -2.2 °F 57% 29.63 in 10.0 mi WNW 20.7 mph 32.2 mph N/A   Scattered Clouds
1:15 AM 10.4 °F -6.6 °F -2.2 °F 57% 29.64 in 10.0 mi NW 16.1 mph 24.2 mph N/A   Scattered Clouds
1:35 AM 10.4 °F -7.7 °F -2.2 °F 57% 29.66 in 10.0 mi NW 18.4 mph 33.4 mph N/A   Mostly Cloudy
1:55 AM 8.6 °F -11.4 °F -0.4 °F 67% 29.66 in 10.0 mi NW 21.9 mph 26.5 mph N/A   Scattered Clouds
2:15 AM 8.6 °F -10.0 °F 1.4 °F 73% 29.68 in 4.0 mi NW 18.4 mph 31.1 mph N/A   Haze
2:35 AM 8.6 °F -8.9 °F 1.4 °F 73% 29.70 in 4.0 mi NW 16.1 mph 21.9 mph N/A Snow Light Snow
2:55 AM 8.6 °F -10.0 °F -2.2 °F 62% 29.72 in 5.0 mi NW 18.4 mph 29.9 mph N/A Snow Light Snow
3:15 AM 6.8 °F -12.9 °F -5.8 °F 56% 29.73 in 10.0 mi NW 19.6 mph 27.6 mph N/A   Mostly Cloudy
3:35 AM 5.0 °F -16.2 °F -9.4 °F 52% 29.75 in 10.0 mi WNW 21.9 mph 29.9 mph N/A   Scattered Clouds
3:55 AM 5.0 °F -16.2 °F -11.2 °F 47% 29.77 in 10.0 mi NW 21.9 mph 27.6 mph N/A   Clear
4:15 AM 5.0 °F -15.2 °F -11.2 °F 47% 29.79 in 10.0 mi NW 19.6 mph 24.2 mph N/A   Clear
4:35 AM 3.2 °F -15.3 °F -11.2 °F 51% 29.81 in 10.0 mi NW 15.0 mph 23.0 mph N/A   Clear
4:55 AM 3.2 °F -15.9 °F -11.2 °F 51% 29.83 in 10.0 mi NW 16.1 mph 21.9 mph N/A   Clear
5:15 AM 3.2 °F -15.9 °F -13.0 °F 47% 29.85 in 10.0 mi NNW 16.1 mph 29.9 mph N/A   Clear
5:35 AM 1.4 °F -18.2 °F -13.0 °F 51% 29.87 in 10.0 mi NW 16.1 mph 21.9 mph N/A   Clear
5:55 AM 1.4 °F -19.4 °F -13.0 °F 51% 29.89 in 10.0 mi NW 18.4 mph 24.2 mph N/A   Clear
6:15 AM -0.4 °F -21.7 °F -13.0 °F 55% 29.91 in 10.0 mi WNW 18.4 mph 25.3 mph N/A   Clear
6:35 AM -0.4 °F -21.2 °F -14.8 °F 51% 29.92 in 10.0 mi NW 17.3 mph 25.3 mph N/A   Clear
6:45 AM -0.4 °F -20.5 °F -14.8 °F 51% 29.92 in 10.0 mi NW 16.1 mph 25.3 mph N/A   Clear
7:45 AM -0.4 °F -21.2 °F -14.8 °F 51% 29.98 in 10.0 mi NW 17.3 mph 23.0 mph N/A   Clear
8:45 AM -0.4 °F -21.2 °F -14.8 °F 51% 30.02 in 10.0 mi NNW 17.3 mph 24.2 mph N/A   Clear
9:45 AM 1.4 °F -18.2 °F -13.0 °F 51% 30.06 in 10.0 mi NW 16.1 mph 23.0 mph N/A   Clear
10:45 AM 3.2 °F -13.1 °F -11.2 °F 51% 30.09 in 10.0 mi NW 11.5 mph 18.4 mph N/A   Clear
11:45 AM 5.0 °F -10.0 °F -11.2 °F 47% 30.11 in 10.0 mi WNW 10.4 mph - N/A   Clear
12:45 PM 6.8 °F -9.3 °F -11.2 °F 44% 30.11 in 10.0 mi WNW 12.7 mph 16.1 mph N/A   Clear
1:45 PM 6.8 °F -10.0 °F -14.8 °F 37% 30.11 in 10.0 mi WNW 13.8 mph 19.6 mph N/A   Clear
2:45 PM 6.8 °F -6.9 °F -11.2 °F 44% 30.12 in 10.0 mi WNW 9.2 mph 16.1 mph N/A   Clear
3:45 PM 6.8 °F -8.6 °F -16.6 °F 34% 30.13 in 10.0 mi West 11.5 mph - N/A   Clear
4:45 PM 5.0 °F -8.1 °F -16.6 °F 36% 30.14 in 10.0 mi West 8.1 mph - N/A   Clear
5:45 PM 3.2 °F -9.1 °F -18.4 °F 36% 30.15 in 10.0 mi West 6.9 mph - N/A   Clear
6:45 PM 3.2 °F -6.2 °F -18.4 °F 36% 30.16 in 10.0 mi NW 4.6 mph - N/A   Clear
7:45 PM 3.2 °F - -16.6 °F 39% 30.17 in 10.0 mi Calm Calm - N/A   Clear
8:15 PM 3.2 °F - -16.6 °F 39% 30.18 in 10.0 mi Calm Calm - N/A   Clear
8:35 PM 1.4 °F - -14.8 °F 47% 30.18 in 10.0 mi Calm Calm - N/A   Clear
8:45 PM 1.4 °F - -14.8 °F 47% 30.18 in 10.0 mi Calm Calm - N/A   Clear
8:55 PM 1.4 °F - -13.0 °F 51% 30.18 in 10.0 mi Calm Calm - N/A   Clear
9:15 PM 1.4 °F - -14.8 °F 47% 30.19 in 10.0 mi Calm Calm - N/A   Clear
9:35 PM 1.4 °F - -13.0 °F 51% 30.18 in 10.0 mi Calm Calm - N/A   Clear
9:55 PM 1.4 °F - -13.0 °F 51% 30.18 in 10.0 mi Calm Calm - N/A   Clear
10:15 PM 1.4 °F - -13.0 °F 51% 30.19 in 10.0 mi Calm Calm - N/A   Clear
10:35 PM -0.4 °F - -11.2 °F 60% 30.19 in 10.0 mi Calm Calm - N/A   Clear
10:55 PM -0.4 °F - -11.2 °F 60% 30.19 in 10.0 mi Calm Calm - N/A   Clear
11:15 PM -0.4 °F - -9.4 °F 66% 30.19 in 10.0 mi Calm Calm - N/A   Clear
11:35 PM -0.4 °F - -9.4 °F 66% 30.18 in 10.0 mi Calm Calm - N/A   Clear
11:55 PM -0.4 °F - -9.4 °F 66% 30.18 in 10.0 mi Calm Calm - N/A   Clear